Погода в Татарской Бездне

Россия / Республика Татарстан     54°42′01″N   47°25′37″E
темп.,
°C
ветер,
м/с
пор.,
м/с
влажн.,
%
обл.,
%
осадки,
мм/ч
давл.,
гПа
погр.,
м
1 июля, пт
пт100:00+9ссв2695100 0.1 1011199
03:00+7ссв5993100 1.2 1012391
06:00+8ссв578890 1.3 1012459
09:00+11св677239 1.5 10131110
12:00+14св7757100 0.4 10131836
15:00+13св796499 0.7 10141426
18:00+13ссв7127399 0.3 1014805
21:00+12ссв615817 0.3 1014566
2 июля, сб
сб200:00+11ссв614913 0.0 1014366
03:00+10ссв6139720 0.0 1014342
06:00+13ссв612884 0.0 1014413
09:00+17св69695 0.0 1015848
12:00+20св7857100 0.0 10151526
15:00+21ссв7855100 0.0 10141813
18:00+19ссв48615 0.0 1013461
21:00+14ссв22825 0.0 101312
3 июля, вс
вс300:00+13ссз2281100 0.0 101215
03:00+12с34908 0.0 101260
06:00+14св248477 0.0 1012150
09:00+19св45693 0.0 1011744
12:00+22св56577 0.1 10111637
15:00+22ссв565818 0.3 10111606
18:00+18ссв5980100 1.0 1012690
21:00+14ссв4990100 1.1 1013276
4 июля, пн
пн400:00+12с399375 0.0 1014179
03:00+11ссз39944 0.0 1014153
06:00+15с498238 0.0 1014427
09:00+19ссв685760 0.0 10151183
12:00+21ссв6751100 0.0 10151983
15:00+21ссв674615 0.0 10152145
18:00+20ссв47605 0.0 1015365
21:00+14вюв11795 0.0 101711
5 июля, вт
вт500:00+13зсз22815 0.0 101715
03:00+12сз228355 0.0 101723
06:00+16сз247249 0.0 1018132
09:00+21сз345460 0.0 1018751
12:00+24ссв23415 0.0 10171943
15:00+25ссв24405 0.0 10161947
18:00+24св11605 0.0 1016216
21:00+18зюз226919 0.0 101611